Preview of NWS' New Version of Forecast
This preview is not operational and should not be used for support decisions.

Regional Weather Roundup (RWR)

Issued by National Weather Service (NWS)

                            
000
ASUS45 KABQ 240301
RWRNM 
NEW MEXICO REGIONAL WEATHER ROUNDUP
NATIONAL WEATHER SERVICE ALBUQUERQUE NM
900 PM MDT TUE APR 23 2019

NOTE: "FAIR" MEANS FEW OR NO CLOUDS BELOW 12,000 FEET AGL WITH NO
       SIGNIFICANT WEATHER OR OBSTRUCTIONS TO VISION.

      THIS PRODUCT IS RELEASED AS TWO VERSIONS.  ONE VERSION NEAR
      THE TOP OF THE HOUR CONTAINING PRELIMINARY DATA FROM ALBUQUERQUE
      AND OTHER STATIONS.  A FINAL VERSION WITH ADDITIONAL DATA IS 
      ISSUED ABOUT 10 MINUTES AFTER THE HOUR.
 
NMZ501-503-504-510>518-240400-
NORTHWEST PLATEAU/NORTHCENTRAL MOUNTAINS
  
CITY           SKY/WX    TMP DP  RH WIND       PRES   REMARKS
FARMINGTON     MOCLDY    55  39  54 E6        30.06R                  
LOS ALAMOS       N/A     44  40  86 SW6       30.16R                  
SANTA FE       NOT AVBL                                               
TAOS           FAIR      39  38  96 SE5       30.17R                  

$$
NMZ402-403-502-505>509-240400-
WESTCENTRAL MOUNTAINS/SOUTHWEST MOUNTAINS
  
CITY           SKY/WX    TMP DP  RH WIND       PRES   REMARKS
GALLUP         FAIR      47  35  63 CALM      30.12R                  
GRANTS         FAIR      42  38  87 CALM      30.15R                  
SILVER CITY    FAIR      51  37  58 N20       30.05R                  

$$
NMZ407-409-411-412-240400-
SOUTHERN DESERTS
  
CITY           SKY/WX    TMP DP  RH WIND       PRES   REMARKS
DEMING         FAIR      59  37  44 N17       30.00R                  
LAS CRUCES     TSTM      57  44  62 W5G18     30.05R                  
ALAMOGORDO     FAIR      63  39  42 N14       30.00R                  
T OR C         LGT RAIN  54  47  77 N15G23    30.07R                  

$$
NMZ519>523-240400-
CENTRAL VALLEYS/CENTRAL HIGHLANDS
  
CITY           SKY/WX    TMP DP  RH WIND       PRES   REMARKS
ALBUQUERQUE    CLOUDY    49  44  83 SW8       30.12R                  
DOUBLE EAGLE   CLOUDY    46  43  87 W7        30.12R                  
CLINES CORNERS CLOUDY    41  39  93 E6        30.15R                  
BELEN          LGT RAIN  49  45  84 N15       30.10S                  
SOCORRO        FAIR      56  38  49 CALM      30.08R                  

$$
NMZ524>526-539-540-240400-
SOUTHCENTRAL MOUNTAINS
  
CITY           SKY/WX    TMP DP  RH WIND       PRES   REMARKS
RUIDOSO        CLOUDY    45  43  93 NE6       30.15R                  

$$
NMZ527>531-240400-
NORTHEAST HIGHLANDS/NORTHEAST PLAINS
  
CITY           SKY/WX    TMP DP  RH WIND       PRES   REMARKS
LAS VEGAS      CLOUDY    41  40  96 SW12      30.13S                  
RATON          CLOUDY    44  39  82 SW6       30.10R                  
CLAYTON        FAIR      40  38  93 CALM      30.08R                  

$$
NMZ532>537-240400-
EASTCENTRAL PLAINS
  
CITY           SKY/WX    TMP DP  RH WIND       PRES   REMARKS
SANTA ROSA     FAIR      49  42  79 CALM      30.10R                  
TUCUMCARI      FAIR      49  43  80 CALM      30.06R                  
CANNON AFB     FAIR      48  45  91 N7        30.07F                  
CLOVIS AIRPORT FAIR      48  46  93 N8        30.07F                  

$$
NMZ028-029-538-240400-
SOUTHEAST PLAINS
  
CITY           SKY/WX    TMP DP  RH WIND       PRES   REMARKS
ROSWELL        FAIR      57  50  77 N7        30.04R                  
ARTESIA        FAIR      57  54  88 N12       30.04R                  
CARLSBAD       CLOUDY    61  52  72 N13       29.99R                  
HOBBS          CLOUDY    55  50  82 NE16      30.05R                  


$$